Location: Bemmer
(51.5498°N, 5.6249°E)
Time: 12:56:18
(UTC+00:00)

CZ-2C R/B - Pass Details

Date: 03 March 2021
Orbit: 783 x 871 km, 98.2° (Epoch: 16 April)

Event Time Altitude Azimuth Distance (km) Brightness Sun altitude
Rises 17:59:20 0° 20° (NNE) 3,439 5.6 -6.7°
Reaches altitude 10° 18:02:01 10° 30° (NNE) 2,486 4.8 -7.1°
Maximum altitude 18:06:56 32° 93° (E) 1,396 3.3 -7.8°
Drops below altitude 10° 18:11:43 10° 157° (SSE) 2,418 4.9 -8.6°
Sets 18:14:16 0° 167° (SSE) 3,332 5.7 -9.0°
